This is the latest recevied weather packets stored in our database for station/object VK3HUG-13. If no packets are shown the sender has not sent any weather packets the latest 10 day(s).
| Time | Temp. | Humidity | Pressure | Rain* | Wind** | Luminosity | Snow |
|---|---|---|---|---|---|---|---|
| 1787654707 | 10° C | 99% | 1020.7 hPa | 0 mm | - | - | - |
| 1787652006 | 10.56° C | 98% | 1020.6 hPa | 0 mm | - | - | - |
| 1787651107 | 10.56° C | 98% | 1019.6 hPa | 0 mm | - | - | - |
| 1787650208 | 10.56° C | 97% | 1019.6 hPa | 0 mm | - | - | - |
| 1787649307 | 10.56° C | 97% | 1019.5 hPa | 0 mm | - | - | - |
| 1787648407 | 11.11° C | 96% | 1019.5 hPa | 0 mm | - | - | - |
| 1787647507 | 11.11° C | 96% | 1018.5 hPa | 0 mm | - | - | - |
| 1787646606 | 11.11° C | 95% | 1018.4 hPa | 0 mm | - | - | - |
| 1787645707 | 11.11° C | 94% | 1018.4 hPa | 0 mm | - | - | - |
| 1787644807 | 11.67° C | 93% | 1017.4 hPa | 0 mm | - | - | - |
| 1787643907 | 11.67° C | 92% | 1017.4 hPa | 0 mm | - | - | - |
| 1787643006 | 11.67° C | 91% | 1017.3 hPa | 0 mm | - | - | - |
| 1787642108 | 11.67° C | 90% | 1017.3 hPa | 0 mm | - | - | - |
| 1787641206 | 11.67° C | 89% | 1016.3 hPa | 0 mm | - | - | - |
| 1787640307 | 12.22° C | 89% | 1016.2 hPa | 0 mm | - | - | - |
| 1787639407 | 12.78° C | 87% | 1016.2 hPa | 0 mm | - | - | - |
| 1787638507 | 12.78° C | 85% | 1016.1 hPa | 0 mm | - | - | - |
| 1787637607 | 13.33° C | 84% | 1016.1 hPa | 0 mm | - | - | - |
| 1787636708 | 13.33° C | 84% | 1016.1 hPa | 0 mm | - | - | - |
| 1787635807 | 13.89° C | 92% | 1015 hPa | 0 mm | - | - | - |
| 1787634907 | 13.89° C | 92% | 1016 hPa | 0 mm | - | - | - |
| 1787634007 | 12.78° C | 95% | 1016.1 hPa | 0 mm | - | - | - |
| 1787632207 | 12.22° C | 97% | 1016.2 hPa | 0 mm | - | - | - |
| 1787631308 | 12.22° C | 97% | 1016.2 hPa | 0 mm | - | - | - |
| 1787630407 | 12.22° C | 99% | 1016.2 hPa | 0 mm | - | - | - |
* Rain latest hour (hover to see other rain measurements)
** Current wind speed in m/s (hover to see current wind gust speed)